Location: Eschertshofen
(49.3064°N, 11.5756°E)
Time: 19:11:08
(UTC+00:00)

Iridium 26 - Pass Details

Date: 28 September 2021
Orbit: 772 x 775 km, 86.4° (Epoch: 21 October)

Event Time Altitude Azimuth Distance (km) Brightness Sun altitude
Exits shadow 20:53:37 32° 332° (NNW) 1,316 7.1 -35.4°
Drops below altitude 10° 20:56:40 10° 354° (N) 2,333 8.6 -35.8°
Sets 20:59:07 0° 0° (N) 3,265 9.4 -36.0°
